VOE91DD LFRB-LFMT

Flight info

Callsign VOE91DD
Flight time 1h 11m
Altitude 33000
Route ROSPO DCT KORER UM616 TUPAR DCT CNA DCT SECHE DCT GAI/N0400F190 G39 AFRIC G393 BRUSC
Aircraft A320/M-SDE3FGHIRWY/LB1

Departure

Time 2026-04-23 18:11
Airport Brest Bretagne airport (LFRB)

Arrival

Time 2026-04-23 19:22
Airport Montpellier-Méditerranée Airport (LFMT)
Time Latitude Longitude Altitude Speed Heading
2026-04-23 17:57 48.44404 -4.42140 332 ft 0 kts 140°
2026-04-23 18:01 48.44412 -4.42150 332 ft 3 kts 143°
2026-04-23 18:02 48.44429 -4.42167 327 ft 3 kts 135°
2026-04-23 18:02 48.44437 -4.42185 329 ft 3 kts 69°
2026-04-23 18:02 48.44429 -4.42211 327 ft 3 kts 50°
2026-04-23 18:02 48.44415 -4.42232 328 ft 3 kts 39°
2026-04-23 18:03 48.44406 -4.42243 327 ft 0 kts 41°
2026-04-23 18:06 48.44419 -4.42226 328 ft 9 kts 41°
2026-04-23 18:06 48.44472 -4.42154 332 ft 11 kts 41°
2026-04-23 18:06 48.44542 -4.42096 330 ft 12 kts 357°
2026-04-23 18:07 48.44619 -4.42127 330 ft 11 kts 341°
2026-04-23 18:07 48.44682 -4.42177 327 ft 11 kts 305°
2026-04-23 18:07 48.44674 -4.42321 320 ft 17 kts 256°
2026-04-23 18:07 48.44637 -4.42505 313 ft 19 kts 251°
2026-04-23 18:08 48.44608 -4.42637 308 ft 21 kts 252°
2026-04-23 18:08 48.44542 -4.42922 305 ft 21 kts 249°
2026-04-23 18:08 48.44493 -4.43137 301 ft 21 kts 251°
2026-04-23 18:08 48.44452 -4.43327 302 ft 17 kts 252°
2026-04-23 18:09 48.44415 -4.43494 303 ft 17 kts 252°
2026-04-23 18:09 48.44380 -4.43648 302 ft 11 kts 251°
2026-04-23 18:09 48.44376 -4.43767 298 ft 12 kts 284°
2026-04-23 18:09 48.44343 -4.43791 299 ft 8 kts 90°
2026-04-23 18:10 48.44362 -4.43722 300 ft 6 kts 70°
2026-04-23 18:10 48.44374 -4.43673 299 ft 4 kts 71°
2026-04-23 18:10 48.44417 -4.43476 301 ft 52 kts 71°
2026-04-23 18:10 48.44605 -4.42649 308 ft 113 kts 71°
2026-04-23 18:11 48.44910 -4.41291 350 ft 158 kts 71°
2026-04-23 18:11 48.45249 -4.39758 1033 ft 151 kts 78°
2026-04-23 18:11 48.45112 -4.38229 1677 ft 153 kts 122°
2026-04-23 18:11 48.44377 -4.37042 2314 ft 162 kts 133°
2026-04-23 18:12 48.43514 -4.35752 2671 ft 184 kts 132°
2026-04-23 18:12 48.42557 -4.34300 3043 ft 208 kts 132°
2026-04-23 18:12 48.41483 -4.32661 3472 ft 232 kts 133°
2026-04-23 18:12 48.40317 -4.30876 4102 ft 245 kts 133°
2026-04-23 18:13 48.39110 -4.29028 4970 ft 249 kts 134°
2026-04-23 18:13 48.37883 -4.27149 5725 ft 256 kts 134°
2026-04-23 18:13 48.36630 -4.25231 6601 ft 258 kts 134°
2026-04-23 18:13 48.35360 -4.23290 7396 ft 262 kts 134°
2026-04-23 18:14 48.34078 -4.21328 8235 ft 264 kts 134°
2026-04-23 18:14 48.32781 -4.19345 9053 ft 268 kts 134°
2026-04-23 18:14 48.31465 -4.17340 9874 ft 271 kts 134°
2026-04-23 18:14 48.30135 -4.15303 10509 ft 280 kts 133°
2026-04-23 18:15 48.28713 -4.13115 10734 ft 303 kts 133°
2026-04-23 18:15 48.27145 -4.10819 10926 ft 327 kts 139°
2026-04-23 18:15 48.25318 -4.08683 11419 ft 337 kts 141°
2026-04-23 18:15 48.23448 -4.06517 12077 ft 342 kts 141°
2026-04-23 18:16 48.21553 -4.04321 12766 ft 346 kts 141°
2026-04-23 18:16 48.19631 -4.02103 13426 ft 351 kts 141°
2026-04-23 18:16 48.17687 -3.99861 14073 ft 355 kts 141°
2026-04-23 18:17 48.14732 -3.93969 15246 ft 361 kts 115°
2026-04-23 18:17 48.13652 -3.90553 15839 ft 365 kts 115°
2026-04-23 18:17 48.12574 -3.87102 16431 ft 368 kts 115°
2026-04-23 18:17 48.11489 -3.83610 17018 ft 372 kts 115°
2026-04-23 18:18 48.10391 -3.80088 17605 ft 375 kts 115°
2026-04-23 18:18 48.09277 -3.76529 18187 ft 379 kts 115°
2026-04-23 18:18 48.08151 -3.72937 18688 ft 384 kts 115°
2026-04-23 18:18 48.07006 -3.69302 19161 ft 388 kts 115°
2026-04-23 18:19 48.05847 -3.65637 19633 ft 393 kts 115°
2026-04-23 18:19 48.04671 -3.61927 20096 ft 398 kts 115°
2026-04-23 18:19 48.03476 -3.58165 20568 ft 402 kts 115°
2026-04-23 18:19 48.02272 -3.54377 21022 ft 407 kts 115°
2026-04-23 18:20 48.01052 -3.50538 21474 ft 411 kts 115°
2026-04-23 18:20 47.99825 -3.46674 21916 ft 415 kts 115°
2026-04-23 18:20 47.98580 -3.42754 22352 ft 419 kts 115°
2026-04-23 18:20 47.97326 -3.38808 22767 ft 423 kts 115°
2026-04-23 18:21 47.96038 -3.34766 23202 ft 427 kts 115°
2026-04-23 18:21 47.94755 -3.30756 23601 ft 431 kts 115°
2026-04-23 18:21 47.93456 -3.26705 23944 ft 435 kts 115°
2026-04-23 18:21 47.92144 -3.22627 24295 ft 437 kts 115°
2026-04-23 18:22 47.90823 -3.18529 24636 ft 440 kts 115°
2026-04-23 18:22 47.89493 -3.14408 24974 ft 443 kts 115°
2026-04-23 18:22 47.88153 -3.10257 25282 ft 446 kts 116°
2026-04-23 18:22 47.86804 -3.06082 25615 ft 448 kts 116°
2026-04-23 18:23 47.85907 -3.03306 25824 ft 450 kts 116°
2026-04-23 18:23 47.82710 -2.93437 26588 ft 455 kts 116°
2026-04-23 18:24 47.79943 -2.84923 27212 ft 459 kts 116°
2026-04-23 18:24 47.78544 -2.80634 27517 ft 462 kts 116°
2026-04-23 18:24 47.77140 -2.76338 27805 ft 464 kts 116°
2026-04-23 18:25 47.74299 -2.67674 28380 ft 468 kts 116°
2026-04-23 18:25 47.72869 -2.63329 28650 ft 470 kts 116°
2026-04-23 18:25 47.71426 -2.58963 28917 ft 472 kts 116°
2026-04-23 18:25 47.69980 -2.54586 29165 ft 474 kts 116°
2026-04-23 18:26 47.68374 -2.50309 29409 ft 475 kts 124°
2026-04-23 18:26 47.66378 -2.46402 29628 ft 476 kts 131°
2026-04-23 18:26 47.64211 -2.42681 29895 ft 477 kts 131°
2026-04-23 18:26 47.62038 -2.38963 30216 ft 477 kts 131°
2026-04-23 18:27 47.59864 -2.35258 30505 ft 476 kts 131°
2026-04-23 18:27 47.57688 -2.31555 30767 ft 476 kts 131°
2026-04-23 18:27 47.55513 -2.27852 31029 ft 476 kts 131°
2026-04-23 18:27 47.53347 -2.24163 31309 ft 475 kts 131°
2026-04-23 18:28 47.51179 -2.20468 31579 ft 475 kts 131°
2026-04-23 18:28 47.49013 -2.16784 31859 ft 475 kts 131°
2026-04-23 18:28 47.46842 -2.13100 32138 ft 474 kts 131°
2026-04-23 18:28 47.44675 -2.09428 32416 ft 474 kts 132°
2026-04-23 18:29 47.42509 -2.05758 32696 ft 474 kts 132°
2026-04-23 18:29 47.40343 -2.02095 32967 ft 473 kts 132°
2026-04-23 18:29 47.38173 -1.98432 33113 ft 473 kts 132°
2026-04-23 18:30 47.34543 -1.92318 33142 ft 473 kts 132°
2026-04-23 18:30 47.30209 -1.85013 33130 ft 473 kts 131°
2026-04-23 18:31 47.25876 -1.77697 33136 ft 474 kts 132°
2026-04-23 18:31 47.21532 -1.70410 33131 ft 474 kts 132°
2026-04-23 18:32 47.17177 -1.63136 33141 ft 474 kts 132°
2026-04-23 18:32 47.12413 -1.56464 33131 ft 473 kts 139°
2026-04-23 18:33 47.07509 -1.50022 33121 ft 473 kts 139°
2026-04-23 18:33 47.02605 -1.43588 33120 ft 473 kts 139°
2026-04-23 18:34 46.97692 -1.37156 33120 ft 474 kts 139°
2026-04-23 18:34 46.92743 -1.30684 33116 ft 474 kts 139°
2026-04-23 18:35 46.87826 -1.24260 33118 ft 474 kts 139°
2026-04-23 18:35 46.82903 -1.17858 33127 ft 474 kts 139°
2026-04-23 18:36 46.77968 -1.11449 33124 ft 474 kts 139°
2026-04-23 18:36 46.73033 -1.05055 33124 ft 475 kts 139°
2026-04-23 18:37 46.68090 -0.98672 33122 ft 475 kts 139°
2026-04-23 18:37 46.63142 -0.92307 33116 ft 475 kts 139°
2026-04-23 18:38 46.58182 -0.85939 33106 ft 476 kts 139°
2026-04-23 18:38 46.53236 -0.79558 33109 ft 476 kts 139°
2026-04-23 18:39 46.48288 -0.73166 33098 ft 476 kts 139°
2026-04-23 18:39 46.43095 -0.67250 33100 ft 474 kts 151°
2026-04-23 18:40 46.37059 -0.63562 33089 ft 471 kts 165°
2026-04-23 18:40 46.30804 -0.60701 33087 ft 471 kts 164°
2026-04-23 18:41 46.24553 -0.57826 33080 ft 472 kts 164°
2026-04-23 18:41 46.18299 -0.54941 33082 ft 472 kts 164°
2026-04-23 18:42 46.12041 -0.52065 33083 ft 472 kts 164°
2026-04-23 18:42 46.05775 -0.49199 33076 ft 472 kts 165°
2026-04-23 18:43 45.99470 -0.46332 33072 ft 472 kts 165°
2026-04-23 18:43 45.93197 -0.43485 33071 ft 473 kts 165°
2026-04-23 18:44 45.86930 -0.40640 33072 ft 473 kts 165°
2026-04-23 18:44 45.80652 -0.37797 33069 ft 473 kts 165°
2026-04-23 18:45 45.74383 -0.34964 33070 ft 473 kts 165°
2026-04-23 18:45 45.68109 -0.32143 33072 ft 473 kts 165°
2026-04-23 18:46 45.62045 -0.28463 33069 ft 475 kts 156°
2026-04-23 18:46 45.56096 -0.24326 33066 ft 475 kts 156°
2026-04-23 18:47 45.50142 -0.20231 33069 ft 475 kts 156°
2026-04-23 18:47 45.44185 -0.16144 33069 ft 475 kts 156°
2026-04-23 18:48 45.38229 -0.12046 33068 ft 476 kts 156°
2026-04-23 18:48 45.32264 -0.07950 33066 ft 476 kts 156°
2026-04-23 18:49 45.26295 -0.03870 33063 ft 476 kts 156°
2026-04-23 18:49 45.20324 0.00196 33065 ft 476 kts 156°
2026-04-23 18:50 45.15322 0.03601 33067 ft 476 kts 156°
2026-04-23 18:50 45.08371 0.08324 33066 ft 477 kts 156°
2026-04-23 18:51 45.02383 0.12372 33065 ft 477 kts 156°
2026-04-23 18:51 44.96360 0.16438 33069 ft 477 kts 156°
2026-04-23 18:52 44.90378 0.20474 33064 ft 477 kts 156°
2026-04-23 18:52 44.84391 0.24505 33068 ft 477 kts 156°
2026-04-23 18:53 44.78403 0.28522 33070 ft 477 kts 156°
2026-04-23 18:53 44.72412 0.32538 33067 ft 477 kts 156°
2026-04-23 18:54 44.66421 0.36548 33072 ft 477 kts 156°
2026-04-23 18:54 44.60425 0.40539 33073 ft 477 kts 156°
2026-04-23 18:55 44.54425 0.44520 33074 ft 477 kts 156°
2026-04-23 18:55 44.48466 0.48645 33087 ft 479 kts 150°
2026-04-23 18:56 44.44120 0.53536 33092 ft 481 kts 134°
2026-04-23 18:56 44.41433 0.58440 33092 ft 481 kts 121°
2026-04-23 18:56 44.39867 0.62577 33095 ft 481 kts 116°
2026-04-23 18:57 44.36846 0.70919 33094 ft 482 kts 116°
2026-04-23 18:57 44.33792 0.79253 33096 ft 482 kts 116°
2026-04-23 18:58 44.30734 0.87598 33097 ft 483 kts 116°
2026-04-23 18:58 44.27674 0.95945 33105 ft 483 kts 116°
2026-04-23 18:59 44.24605 1.04296 33112 ft 483 kts 116°
2026-04-23 18:59 44.21510 1.12678 33113 ft 484 kts 116°
2026-04-23 19:00 44.18420 1.21020 33115 ft 484 kts 116°
2026-04-23 19:00 44.15327 1.29349 33114 ft 484 kts 116°
2026-04-23 19:01 44.12229 1.37684 33115 ft 485 kts 116°
2026-04-23 19:01 44.09115 1.46005 33124 ft 485 kts 116°
2026-04-23 19:02 44.06520 1.52918 32875 ft 485 kts 116°
2026-04-23 19:02 44.04963 1.57075 32615 ft 486 kts 116°
2026-04-23 19:02 44.03400 1.61250 32360 ft 486 kts 116°
2026-04-23 19:02 44.01833 1.65413 32103 ft 487 kts 116°
2026-04-23 19:03 44.00258 1.69589 31856 ft 488 kts 116°
2026-04-23 19:03 43.98681 1.73766 31607 ft 489 kts 116°
2026-04-23 19:03 43.97102 1.77943 30932 ft 490 kts 116°
2026-04-23 19:03 43.95666 1.82270 29574 ft 498 kts 109°
2026-04-23 19:04 43.94681 1.86937 28709 ft 492 kts 100°
2026-04-23 19:04 43.93964 1.91452 28212 ft 482 kts 100°
2026-04-23 19:04 43.93219 1.95962 27507 ft 477 kts 101°
2026-04-23 19:04 43.92458 2.00478 26828 ft 473 kts 101°
2026-04-23 19:05 43.91710 2.04898 26173 ft 468 kts 101°
2026-04-23 19:05 43.90973 2.09280 25517 ft 465 kts 101°
2026-04-23 19:05 43.90244 2.13630 24873 ft 462 kts 101°
2026-04-23 19:05 43.89522 2.17956 24233 ft 459 kts 101°
2026-04-23 19:06 43.88809 2.22244 23562 ft 456 kts 101°
2026-04-23 19:06 43.88097 2.26506 22916 ft 451 kts 101°
2026-04-23 19:06 43.87390 2.30719 22360 ft 446 kts 101°
2026-04-23 19:06 43.86694 2.34871 21785 ft 441 kts 101°
2026-04-23 19:07 43.86002 2.38985 21261 ft 435 kts 101°
2026-04-23 19:07 43.85317 2.43039 20750 ft 430 kts 101°
2026-04-23 19:07 43.84637 2.47055 20262 ft 425 kts 101°
2026-04-23 19:07 43.83960 2.51027 19774 ft 421 kts 101°
2026-04-23 19:08 43.83288 2.54958 19293 ft 418 kts 101°
2026-04-23 19:08 43.82622 2.58857 18820 ft 415 kts 102°
2026-04-23 19:08 43.81936 2.62719 18304 ft 412 kts 102°
2026-04-23 19:08 43.81231 2.66554 17786 ft 409 kts 103°
2026-04-23 19:09 43.80521 2.70343 17282 ft 405 kts 103°
2026-04-23 19:09 43.79814 2.74107 16776 ft 402 kts 103°
2026-04-23 19:09 43.79114 2.77841 16257 ft 400 kts 103°
2026-04-23 19:09 43.78419 2.81553 15740 ft 397 kts 103°
2026-04-23 19:10 43.77726 2.85249 15210 ft 395 kts 103°
2026-04-23 19:10 43.77045 2.88917 14680 ft 393 kts 103°
2026-04-23 19:10 43.76394 2.92581 14144 ft 391 kts 102°
2026-04-23 19:10 43.75766 2.96231 13577 ft 388 kts 102°
2026-04-23 19:11 43.75151 2.99846 13038 ft 384 kts 102°
2026-04-23 19:11 43.74542 3.03421 12493 ft 380 kts 102°
2026-04-23 19:11 43.73933 3.06968 11957 ft 376 kts 103°
2026-04-23 19:11 43.73325 3.10465 11388 ft 372 kts 103°
2026-04-23 19:12 43.72717 3.13925 10896 ft 367 kts 103°
2026-04-23 19:12 43.72126 3.17279 10766 ft 351 kts 103°
2026-04-23 19:12 43.71551 3.20533 10641 ft 336 kts 103°
2026-04-23 19:12 43.71007 3.23610 10524 ft 323 kts 103°
2026-04-23 19:13 43.70484 3.26573 10400 ft 311 kts 103°
2026-04-23 19:13 43.69981 3.29419 10274 ft 300 kts 103°
2026-04-23 19:13 43.69488 3.32187 9981 ft 295 kts 104°
2026-04-23 19:13 43.68995 3.34946 9582 ft 293 kts 104°
2026-04-23 19:14 43.68510 3.37655 9235 ft 290 kts 105°
2026-04-23 19:14 43.68190 3.39444 8985 ft 288 kts 104°
2026-04-23 19:14 43.67819 3.41541 8671 ft 287 kts 104°
2026-04-23 19:15 43.67350 3.44208 8310 ft 284 kts 104°
2026-04-23 19:15 43.66885 3.46851 7938 ft 282 kts 105°
2026-04-23 19:15 43.66424 3.49469 7570 ft 279 kts 105°
2026-04-23 19:15 43.65996 3.52075 7199 ft 277 kts 100°
2026-04-23 19:16 43.65960 3.54730 6828 ft 277 kts 85°
2026-04-23 19:16 43.66194 3.57359 6428 ft 276 kts 85°
2026-04-23 19:16 43.66424 3.59975 6017 ft 273 kts 85°
2026-04-23 19:17 43.66882 3.65294 4567 ft 278 kts 85°
2026-04-23 19:17 43.67106 3.67917 4034 ft 268 kts 85°
2026-04-23 19:17 43.67317 3.70376 3776 ft 249 kts 85°
2026-04-23 19:17 43.67515 3.72670 3524 ft 233 kts 85°
2026-04-23 19:18 43.67701 3.74824 3267 ft 220 kts 85°
2026-04-23 19:18 43.67673 3.76861 3013 ft 207 kts 105°
2026-04-23 19:18 43.67111 3.78641 2768 ft 201 kts 126°
2026-04-23 19:18 43.66321 3.80204 2589 ft 194 kts 126°
2026-04-23 19:19 43.64897 3.83037 2496 ft 163 kts 126°
2026-04-23 19:19 43.64279 3.84266 2482 ft 152 kts 126°
2026-04-23 19:20 43.63069 3.86676 1925 ft 148 kts 126°
2026-04-23 19:20 43.62489 3.87833 1681 ft 145 kts 126°
2026-04-23 19:20 43.61919 3.88971 1449 ft 141 kts 126°
2026-04-23 19:20 43.61360 3.90085 1219 ft 141 kts 126°
2026-04-23 19:21 43.60803 3.91193 986 ft 140 kts 126°
2026-04-23 19:21 43.59689 3.93433 510 ft 142 kts 126°
2026-04-23 19:21 43.59130 3.94554 277 ft 142 kts 125°
2026-04-23 19:22 43.58564 3.95671 44 ft 142 kts 126°
2026-04-23 19:22 43.58053 3.96680 17 ft 106 kts 125°
2026-04-23 19:22 43.57593 3.97593 19 ft 23 kts 123°
2026-04-23 19:23 43.57501 3.97785 17 ft 25 kts 124°
2026-04-23 19:23 43.57395 3.97991 14 ft 28 kts 126°
2026-04-23 19:23 43.57292 3.98144 16 ft 15 kts 153°
2026-04-23 19:24 43.57186 3.98013 14 ft 15 kts 288°
2026-04-23 19:24 43.57243 3.97887 15 ft 17 kts 305°
2026-04-23 19:24 43.57390 3.97597 16 ft 19 kts 305°
2026-04-23 19:25 43.57555 3.97269 18 ft 22 kts 306°
2026-04-23 19:25 43.57753 3.96869 11 ft 28 kts 304°
2026-04-23 19:26 43.57980 3.96419 15 ft 29 kts 304°
2026-04-23 19:26 43.58045 3.96285 15 ft 10 kts 284°
2026-04-23 19:27 43.57969 3.96170 15 ft 7 kts 258°
2026-04-23 19:27 43.57981 3.96017 15 ft 5 kts 212°
2026-04-23 19:28 43.57965 3.96002 17 ft 1 kts 214°
2026-04-23 19:28 43.57956 3.95994 16 ft 0 kts 213°
2026-04-23 19:30 43.57957 3.95994 16 ft 0 kts 214°